Location: San Martino di Castrozza
(46.2667°N, 11.8000°E)
Time: 16:09:35
(UTC+00:00)

BREEZE-M R/B - Pass Details

Date: 23 April 2021
Orbit: 311 x 4505 km, 49.7° (Epoch: 12 May)

Event Time Altitude Azimuth Distance (km) Brightness Sun altitude
Exits shadow 00:07:59 36° 61° (ENE) 1,049 4.4 -29.8°
Drops below altitude 10° 00:11:59 10° 70° (ENE) 2,718 6.7 -29.6°
Sets 00:15:49 0° 73° (ENE) 4,314 7.8 -29.4°
